[Iaude] MPEC Y118: 2019 VN6 [a=2.10,e=0.61,i=14.0,H=17.9]

mpec at marsden.cfa.harvard.edu mpec at marsden.cfa.harvard.edu
Mon Dec 30 09:24:02 EST 2019


M.P.E.C. 2019-Y118                            Issued 2019 December 30, 14:22 UT

     The Minor Planet Electronic Circulars contain information on unusual
         minor planets and routine data on comets.  They are published
    on behalf of Division F of the International Astronomical Union by the
          Minor Planet Center, Smithsonian Astrophysical Observatory,
                          Cambridge, MA 02138, U.S.A.

             Prepared using the Tamkin Foundation Computer Network

                              MPC at CFA.HARVARD.EDU
            URL https://www.minorplanetcenter.net/    ISSN 1523-6714

                                    2019 VN6                                    


Observations:
     K19V06N  C2019 11 04.60098808 56 16.757+08 34 25.52         22.3 GVEY118F51
     K19V06N  C2019 11 04.61208308 56 17.163+08 34 23.91         22.7 GVEY118F51
     K19V06N* C2019 11 08.58811 08 58 39.121+08 26 33.10         21.5 wUEY118F51
     K19V06N  C2019 11 08.60063 08 58 39.498+08 26 31.82         21.3 wUEY118F51
     K19V06N  C2019 11 08.62566 08 58 40.252+08 26 29.22         21.3 wUEY118F51
     K19V06N  C2019 12 28.44672708 42 16.771+10 48 37.21         21.53wUEY118F51
     K19V06N  C2019 12 28.45875908 42 15.877+10 48 42.96         21.73wUEY118F51
     K19V06N  C2019 12 28.48280408 42 14.116+10 48 54.24         21.33wUEY118F51
     K19V06N bC2019 12 28.90191908 41 44.23 +10 52 09.7          21.5 GVEY118L01
     K19V06N bC2019 12 28.90744108 41 43.82 +10 52 11.6          21.5 GVEY118L01
     K19V06N bC2019 12 28.91294308 41 43.42 +10 52 14.4          21.6 GVEY118L01
     K19V06N bC2019 12 28.94629308 41 40.92 +10 52 30.8          21.6 GVEY118L01
     K19V06N  C2019 12 29.01395 08 41 35.93 +10 53 02.1          20.4 VVEY118033
     K19V06N  C2019 12 29.01752 08 41 35.69 +10 53 03.7          20.8 VVEY118033
     K19V06N  C2019 12 29.02109 08 41 35.42 +10 53 05.5          20.8 VVEY118033
     K19V06N  C2019 12 29.02472 08 41 35.16 +10 53 07.1          20.4 VVEY118033
     K19V06N KC2019 12 30.45789 08 39 49.90 +11 04 40.2          21.0 RoEY118291
     K19V06N KC2019 12 30.46170 08 39 49.62 +11 04 42.2          21.1 RoEY118291
     K19V06N KC2019 12 30.46552 08 39 49.31 +11 04 43.9                oEY118291

Observer details:
033 Karl Schwarzschild Observatory, Tautenburg.  Observers S. Melnikov, U. Laux,
    B. Stecklum.  Measurer B. Stecklum.  1.34-m f/3 Schmidt + CCD.
291 LPL/Spacewatch II.  Observer T. H. Bressi.  1.8-m f/2.7 reflector + CCD.
F51 Pan-STARRS 1, Haleakala.  Observers J. Bulger, K. Chambers, T. Lowe, A. 
   Schultz, M. Willman.  Measurers S. Chastel, M. Huber, Y. Ramanjooloo, R. 
   Wainscoat, R. Weryk, K. Chambers, T. de Boer, L. Denneau, J. Fairlamb, H. 
   Flewelling, C.-C. Lin, E. Magnier.  1.8-m Ritchey-Chretien + CCD.
L01 Visnjan Observatory, Tican.  Observer K. Korlevic.  1.0-m f/2.9 reflector + 
   CCD.

Orbital elements:
2019 VN6                                                 Earth MOID = 0.1113 AU
Epoch 2020 May 31.0 TT = JDT 2459000.5                  Veres
M 116.28679              (2000.0)            P               Q
n   0.32334107     Peri.  206.19471     +0.93497473     +0.30982016
a   2.1023038      Node   134.60300     -0.26766256     +0.93575568
e   0.6050388      Incl.   14.03970     -0.23276387     +0.16844220
P   3.05           H   17.9           G   0.15           U   5
Residuals in seconds of arc
191104 F51  0.1+  0.1+    191228 F51  0.0   0.0     191229 033  0.2-  0.3-
191104 F51  0.1-  0.1-    191228 L01  0.4+  0.3+    191229 033  0.1-  0.4-
191108 F51  0.0   0.0     191228 L01  0.4+  0.4-    191230 291  0.1+  0.2+
191108 F51  0.0   0.0     191228 L01  0.4+  0.2-    191230 291  0.2+  0.4+
191108 F51  0.0   0.1-    191228 L01  0.4-  0.2+    191230 291  0.0   0.2+
191228 F51  0.0   0.0     191229 033  0.4-  0.3-
191228 F51  0.1-  0.1+    191229 033  0.1-  0.4-

Ephemeris:
2019 VN6                 a,e,i = 2.10, 0.61, 14                  q = 0.8303
Date    TT    R. A. (2000) Decl.     Delta      r    Elong.  Phase     V
2019 11 30    09 02 32.7 +08 26 49   1.5748  2.1415   111.4    25.4    21.7
...
2019 12 15    08 55 26.7 +09 20 24   1.4965  2.2444   128.4    20.1    21.5
...
2019 12 23    08 48 19.2 +10 08 38   1.4674  2.2971   138.3    16.5    21.4
...
2019 12 29    08 41 36.9 +10 52 59   1.4541  2.3356   146.1    13.6    21.3
2019 12 30    08 40 24.0 +11 00 59   1.4527  2.3420   147.4    13.1    21.3
2019 12 31    08 39 09.5 +11 09 08   1.4516  2.3483   148.8    12.5    21.3
...
2020 01 06    08 31 15.3 +12 00 52   1.4505  2.3857   156.8     9.4    21.2
...
2020 01 14    08 19 53.8 +13 15 04   1.4653  2.4343   167.3     5.1    21.1
...
2020 01 29    07 58 39.3 +15 35 33   1.5475  2.5215   169.1     4.2    21.2

A. U. Tomatic                (C) Copyright 2019 MPC           M.P.E.C. 2019-Y118




More information about the Iaude mailing list